TimeEST,TemperatureF,Dew PointF,Humidity,Sea Level PressureIn,VisibilityMPH,Wind Direction,Wind SpeedMPH,Gust SpeedMPH,PrecipitationIn,Events,Conditions,WindDirDegrees,DateUTC
12:15 AM,51.8,46.4,82,30.08,7.0,SW,4.6,-,N/A,,Overcast,220,2011-11-10 05:15:00
12:35 AM,51.8,46.4,82,30.08,7.0,SSW,5.8,-,N/A,,Overcast,210,2011-11-10 05:35:00
12:55 AM,51.8,46.4,82,30.08,6.0,SW,4.6,-,N/A,,Overcast,220,2011-11-10 05:55:00
1:15 AM,51.8,48.2,88,30.08,5.0,SSW,6.9,-,N/A,,Overcast,210,2011-11-10 06:15:00
1:35 AM,53.6,48.2,82,30.08,5.0,South,5.8,-,N/A,,Overcast,190,2011-11-10 06:35:00
1:55 AM,53.6,48.2,82,30.07,5.0,SSW,5.8,-,N/A,,Overcast,210,2011-11-10 06:55:00
2:15 AM,53.6,48.2,82,30.06,5.0,South,4.6,-,N/A,,Overcast,190,2011-11-10 07:15:00
2:35 AM,53.6,48.2,82,30.07,5.0,SSW,4.6,-,N/A,,Overcast,200,2011-11-10 07:35:00
2:55 AM,53.6,48.2,82,30.06,8.0,SSW,3.5,-,N/A,,Overcast,200,2011-11-10 07:55:00
3:15 AM,53.6,48.2,82,30.05,8.0,Calm,Calm,-,N/A,,Overcast,0,2011-11-10 08:15:00
3:35 AM,53.6,48.2,82,30.05,8.0,Calm,Calm,-,N/A,,Overcast,0,2011-11-10 08:35:00
4:15 AM,53.6,48.2,82,30.04,8.0,Calm,Calm,-,N/A,,Overcast,0,2011-11-10 09:15:00
4:35 AM,53.6,48.2,82,30.05,10.0,South,4.6,-,N/A,,Overcast,170,2011-11-10 09:35:00
4:55 AM,53.6,48.2,82,30.04,10.0,Calm,Calm,-,N/A,,Overcast,0,2011-11-10 09:55:00
5:15 AM,53.6,48.2,82,30.03,9.0,Calm,Calm,-,N/A,,Overcast,0,2011-11-10 10:15:00
5:35 AM,53.6,48.2,82,30.03,10.0,Calm,Calm,-,N/A,,Mostly Cloudy,0,2011-11-10 10:35:00
5:55 AM,53.6,48.2,82,30.03,9.0,Calm,Calm,-,N/A,,Mostly Cloudy,0,2011-11-10 10:55:00
6:55 AM,53.6,48.2,82,30.03,9.0,Calm,Calm,-,N/A,,Overcast,0,2011-11-10 11:55:00
7:15 AM,55.4,50.0,82,30.01,9.0,SE,9.2,-,N/A,,Overcast,140,2011-11-10 12:15:00
7:35 AM,55.4,50.0,82,30.02,9.0,SE,4.6,-,N/A,,Overcast,130,2011-11-10 12:35:00
7:55 AM,55.4,50.0,82,30.02,9.0,SSE,6.9,-,N/A,,Overcast,160,2011-11-10 12:55:00
8:15 AM,55.4,50.0,82,30.01,9.0,South,6.9,-,N/A,,Overcast,180,2011-11-10 13:15:00
8:35 AM,55.4,50.0,82,30.01,9.0,South,5.8,-,N/A,,Overcast,170,2011-11-10 13:35:00
9:35 AM,55.4,50.0,82,29.99,8.0,South,10.4,-,N/A,,Overcast,190,2011-11-10 14:35:00
9:55 AM,57.2,51.8,82,29.98,8.0,South,8.1,-,N/A,,Overcast,180,2011-11-10 14:55:00
10:15 AM,55.4,50.0,82,29.97,8.0,South,9.2,-,N/A,,Overcast,180,2011-11-10 15:15:00
10:35 AM,55.4,50.0,82,29.97,8.0,South,4.6,-,N/A,,Overcast,190,2011-11-10 15:35:00
10:55 AM,55.4,50.0,82,29.96,6.0,South,10.4,-,N/A,,Overcast,170,2011-11-10 15:55:00
11:15 AM,55.4,50.0,82,29.95,3.0,South,6.9,-,N/A,,Overcast,170,2011-11-10 16:15:00
11:35 AM,55.4,50.0,82,29.94,3.0,South,5.8,-,N/A,,Overcast,170,2011-11-10 16:35:00
11:55 AM,55.4,50.0,82,29.93,2.0,South,3.5,-,N/A,,Overcast,170,2011-11-10 16:55:00
12:15 PM,55.4,50.0,82,29.91,4.0,South,3.5,-,N/A,,Overcast,180,2011-11-10 17:15:00
12:35 PM,55.4,50.0,82,29.90,3.0,Calm,Calm,-,N/A,,Overcast,0,2011-11-10 17:35:00
12:55 PM,55.4,50.0,82,29.89,4.0,Calm,Calm,-,N/A,,Overcast,0,2011-11-10 17:55:00
1:15 PM,55.4,51.8,88,29.88,4.0,SE,3.5,-,0.01,,Overcast,140,2011-11-10 18:15:00
1:35 PM,55.4,51.8,88,29.87,3.0,SE,4.6,-,0.01,,Overcast,130,2011-11-10 18:35:00
1:55 PM,55.4,51.8,88,29.86,2.0,East,3.5,-,0.01,,Overcast,90,2011-11-10 18:55:00
2:15 PM,53.6,50.0,88,29.85,1.2,ENE,5.8,-,N/A,,Overcast,70,2011-11-10 19:15:00
2:35 PM,53.6,50.0,88,29.84,1.5,ENE,4.6,-,N/A,,Overcast,70,2011-11-10 19:35:00
2:55 PM,53.6,50.0,88,29.83,1.5,ENE,6.9,-,N/A,,Overcast,70,2011-11-10 19:55:00
3:15 PM,53.6,50.0,88,29.82,2.0,ENE,5.8,-,0.01,,Overcast,70,2011-11-10 20:15:00
3:35 PM,53.6,50.0,88,29.81,1.8,East,4.6,-,0.01,,Overcast,80,2011-11-10 20:35:00
3:55 PM,53.6,50.0,88,29.80,2.0,ESE,6.9,-,0.01,,Overcast,110,2011-11-10 20:55:00
4:15 PM,53.6,50.0,88,29.78,2.5,ESE,8.1,-,N/A,,Overcast,110,2011-11-10 21:15:00
4:35 PM,53.6,50.0,88,29.76,3.0,East,9.2,-,N/A,,Overcast,90,2011-11-10 21:35:00
4:55 PM,53.6,50.0,88,29.75,4.0,ESE,15.0,-,N/A,,Overcast,110,2011-11-10 21:55:00
5:35 PM,55.4,50.0,82,29.73,5.0,ESE,12.7,19.6,N/A,,Overcast,120,2011-11-10 22:35:00
5:55 PM,55.4,51.8,88,29.71,5.0,ESE,12.7,18.4,N/A,,Overcast,110,2011-11-10 22:55:00
6:15 PM,55.4,50.0,82,29.70,4.0,ESE,11.5,20.7,0.01,,Overcast,120,2011-11-10 23:15:00
6:35 PM,55.4,51.8,88,29.69,5.0,SE,16.1,20.7,0.04,,Overcast,130,2011-11-10 23:35:00
6:55 PM,55.4,51.8,88,29.67,3.0,ESE,15.0,19.6,0.06,,Overcast,110,2011-11-10 23:55:00
7:15 PM,55.4,50.0,82,29.66,2.5,ESE,10.4,-,0.01,,Overcast,110,2011-11-11 00:15:00
7:35 PM,55.4,51.8,88,29.64,2.0,East,8.1,-,0.01,,Overcast,100,2011-11-11 00:35:00
7:55 PM,53.6,50.0,88,29.63,1.8,East,8.1,-,0.01,,Overcast,90,2011-11-11 00:55:00
8:15 PM,53.6,50.0,88,29.61,2.0,East,8.1,-,0.01,,Overcast,80,2011-11-11 01:15:00
8:35 PM,53.6,50.0,88,29.59,2.5,East,5.8,-,0.02,,Overcast,90,2011-11-11 01:35:00
8:55 PM,53.6,50.0,88,29.57,3.0,ESE,8.1,-,0.04,,Overcast,110,2011-11-11 01:55:00
9:15 PM,55.4,51.8,88,29.55,5.0,SE,17.3,24.2,N/A,,Overcast,130,2011-11-11 02:15:00
9:55 PM,55.4,51.8,88,29.50,5.0,ESE,16.1,-,N/A,,Overcast,110,2011-11-11 02:55:00
10:15 PM,55.4,51.8,88,29.49,3.0,ESE,11.5,-,N/A,,Overcast,110,2011-11-11 03:15:00
10:55 PM,55.4,51.8,88,29.46,5.0,SSE,12.7,18.4,0.05,,Overcast,160,2011-11-11 03:55:00
11:15 PM,55.4,51.8,88,29.45,1.0,South,13.8,23.0,N/A,,Overcast,170,2011-11-11 04:15:00
11:35 PM,55.4,51.8,88,29.45,0.8,South,11.5,19.6,N/A,,Overcast,190,2011-11-11 04:35:00
11:55 PM,55.4,51.8,88,29.44,0.5,South,9.2,18.4,N/A,,Overcast,190,2011-11-11 04:55:00